Vorticity
11 12 17 20 17 11 6 5 3 9 15 13 6 6 14 9 1 5 8 4 -3 5 15 4 -0 5 2 -1 -1 2 1 -4 -2 1 -0 2 12 13 7 11 9 7 12 9 12 24 22 14 11 10 8 8 8 7 6 6 6 8 7 7 7 7 7 6 6 6 7 7 7 8 7 8 7 7 7 6 6 5 4 3 3 3 3 3 3 3
9 8 16 20 19 15 10 9 6 7 12 14 11 6 8 7 3 5 8 6 -2 -1 9 8 4 2 -4 -4 2 5 -2 -5 -3 -4 -4 -0 7 13 11 11 10 7 9 9 11 18 19 15 13 12 7 6 7 5 5 6 7 9 8 7 8 9 7 6 5 6 7 7 7 7 7 9 9 8 6 6 6 4 3 2 2 2 3 3 3 4
6 5 12 17 19 19 15 13 11 8 9 11 12 9 7 10 9 6 6 8 2 -6 1 8 5 1 -4 -1 9 3 -9 -5 0 -3 2 6 4 7 13 14 11 7 7 9 13 16 15 12 12 12 8 5 5 5 6 8 9 9 8 8 9 9 7 6 6 4 5 6 7 7 7 7 9 9 6 5 6 5 4 3 1 1 2 3 4 4
4 2 8 13 15 17 17 16 13 11 9 9 10 9 12 14 7 6 7 8 4 -6 -2 7 4 2 1 6 9 -2 -7 2 4 6 13 10 1 2 9 15 14 9 8 8 11 16 15 11 9 10 9 6 5 4 3 6 8 7 6 8 8 7 7 7 5 4 5 6 5 6 6 5 7 10 8 5 5 6 4 3 3 2 2 3 4 5
4 2 5 7 7 9 13 15 14 12 9 9 8 7 14 16 7 7 7 6 7 -3 -5 2 2 2 3 5 4 -2 3 10 7 9 10 0 -2 2 7 15 16 10 8 7 9 15 16 12 10 10 9 6 4 4 3 3 5 5 4 6 7 6 7 7 6 6 6 6 5 5 6 5 6 9 9 6 4 5 4 3 3 3 3 3 4 6
7 5 5 5 5 7 8 10 13 13 10 8 7 8 16 16 8 9 6 3 6 2 -4 -3 0 5 5 2 1 4 10 9 7 7 0 -4 3 7 6 11 15 10 9 8 7 12 14 12 11 10 9 7 4 4 5 6 6 6 6 5 4 4 4 5 5 7 7 5 5 5 4 6 7 8 9 8 4 4 4 3 3 3 4 4 5 6
11 8 7 5 5 6 6 10 14 16 16 14 10 8 15 17 9 8 8 2 2 6 3 -5 -7 2 10 5 -3 5 8 2 5 6 0 1 4 5 6 10 15 12 12 11 7 10 12 12 11 9 9 8 7 6 4 7 7 6 7 5 3 3 4 4 4 6 5 4 5 5 4 5 6 6 9 9 5 5 6 4 3 4 4 4 5 6
15 13 10 7 6 5 5 10 14 14 18 25 20 7 10 19 14 8 7 4 1 4 7 -1 -11 -6 13 12 -5 3 9 1 6 7 0 3 3 4 5 7 14 13 12 12 8 8 11 12 11 9 9 9 10 9 6 6 5 4 6 6 5 4 4 5 5 6 5 4 4 5 5 6 5 6 8 8 7 7 6 4 4 4 4 4 3 6
7 10 11 9 9 8 5 8 12 12 17 29 24 7 8 18 18 12 5 4 4 0 3 5 -8 -14 13 23 2 6 11 0 9 10 1 3 3 3 2 1 10 12 11 13 11 9 8 11 13 10 8 7 9 10 7 7 7 6 7 7 8 7 5 6 6 8 7 4 4 6 7 7 5 6 7 6 7 7 4 3 5 4 4 4 3 5
1 3 5 6 10 10 7 5 8 10 14 24 20 8 9 12 19 17 2 5 7 -5 -0 14 0 -19 5 28 10 10 20 10 14 12 2 5 2 1 3 2 7 10 10 10 11 12 8 8 12 10 7 6 8 9 8 9 8 7 8 7 8 8 7 7 7 9 9 8 7 6 6 6 6 6 6 5 5 6 6 4 4 4 3 3 3 4
5 1 -1 2 8 10 10 6 5 7 8 14 13 11 8 5 18 18 3 7 -0 -14 6 26 5 -23 2 38 18 3 18 20 16 5 -3 5 1 -0 5 4 6 10 13 12 9 11 10 7 8 9 8 6 7 8 9 11 10 9 10 10 11 12 12 12 11 9 7 9 11 9 6 5 7 8 7 5 5 6 7 4 3 4 4 3 2 3
10 5 0 4 7 8 11 9 8 8 6 10 9 9 6 1 12 14 8 4 -18 -17 20 31 10 -13 4 36 20 0 13 22 17 2 -2 7 2 -1 3 2 2 4 9 14 13 11 9 8 9 9 10 8 6 8 10 12 12 10 9 9 10 11 10 10 11 11 7 7 10 10 7 5 6 10 9 5 4 6 7 5 4 5 4 3 2 2
11 12 6 7 8 7 9 10 11 9 7 10 7 7 6 3 5 6 7 -5 -25 -6 27 27 14 -9 -19 -1 6 6 15 24 23 5 -2 4 0 1 5 2 1 0 1 8 13 13 9 7 7 7 9 9 7 7 9 11 11 9 7 5 6 5 5 5 6 8 7 7 8 8 9 7 6 9 9 4 3 6 7 5 5 5 4 3 3 2
8 12 9 9 9 7 6 7 9 10 11 13 13 10 6 6 7 4 5 -7 -16 6 26 26 14 -13 -22 -3 9 12 8 11 19 7 -2 2 0 3 4 1 1 -1 -2 2 8 13 11 8 7 6 7 7 6 5 5 7 7 6 5 4 4 3 3 5 4 4 4 5 6 6 8 8 7 9 9 6 3 5 7 6 6 4 4 5 4 2
3 5 7 9 9 7 6 5 5 8 9 10 18 17 6 9 14 9 8 -3 -10 3 18 24 11 -14 -10 -0 -1 7 7 7 11 4 -1 4 5 4 1 -0 1 -2 -1 1 5 10 11 11 10 8 8 6 4 3 3 5 6 5 5 5 5 4 4 6 6 5 4 2 2 3 4 6 8 9 9 7 4 5 8 8 7 5 5 6 4 2
3 5 9 8 7 8 7 6 6 7 7 6 11 11 6 17 23 15 13 4 -7 -5 6 16 8 -7 -0 2 -3 4 5 5 9 6 7 10 10 8 1 -2 -1 1 6 5 2 4 6 11 12 9 8 7 6 4 2 4 5 5 6 6 5 4 4 6 7 7 6 3 3 3 3 3 4 6 8 8 6 6 7 6 5 5 4 3 4 6
5 7 11 8 8 13 10 7 5 5 7 8 8 3 1 15 22 15 16 15 4 -4 -0 11 9 2 7 11 13 13 6 5 4 6 14 16 15 11 1 -1 -0 2 7 4 2 2 1 7 12 11 10 9 8 5 3 5 4 5 5 5 6 4 5 8 9 9 8 6 7 7 6 5 4 5 6 7 7 6 4 3 3 3 4 5 7 8
1 0 5 7 8 11 11 9 6 3 3 5 8 6 3 10 13 9 13 19 14 0 1 10 10 9 12 11 13 14 13 12 4 -0 6 10 15 14 3 -0 3 4 2 -2 -1 0 0 3 7 10 11 10 9 6 5 5 4 4 4 4 5 5 8 10 9 9 10 11 13 13 12 9 6 5 5 5 6 5 4 4 3 4 6 5 6 6
1 -3 -2 3 6 6 7 7 5 5 4 3 5 4 4 7 8 6 6 12 15 5 4 12 11 12 16 11 9 12 12 14 10 6 4 2 9 14 8 4 5 3 -1 1 2 -1 1 5 5 9 11 11 10 7 6 5 3 4 4 5 6 7 9 10 8 11 13 15 16 16 18 17 12 8 6 5 5 5 6 5 3 4 5 4 5 7
3 0 -3 1 6 4 3 4 3 4 5 6 6 2 2 2 4 8 5 6 11 3 1 10 15 20 22 14 11 14 14 15 12 8 8 7 6 7 8 11 12 6 -1 5 11 5 5 8 6 7 12 13 11 7 6 6 3 3 4 5 6 8 9 8 8 11 11 11 12 12 14 17 17 14 10 8 6 5 6 5 3 3 3 4 5 6
2 2 2 3 3 0 1 3 5 6 4 5 5 5 5 0 1 6 3 5 10 5 5 7 7 18 26 19 15 12 11 15 13 9 7 7 7 6 5 8 16 23 17 13 17 14 9 10 8 6 10 16 15 9 6 6 6 5 5 5 6 8 9 7 8 10 9 8 8 9 11 13 16 16 13 10 8 6 6 5 5 4 4 6 6 7
3 3 4 3 1 1 4 5 7 9 8 6 5 5 6 5 5 3 -0 3 3 2 8 2 -5 10 20 16 15 11 7 11 15 14 10 7 9 10 6 3 11 24 22 10 8 9 7 9 12 10 12 19 19 14 9 7 7 6 5 5 6 8 8 7 8 8 7 7 7 9 11 11 13 15 16 15 12 9 7 6 6 4 4 7 8 9
6 6 5 4 2 2 4 3 3 5 7 7 7 6 5 4 6 3 1 3 -0 1 6 -3 -1 19 22 15 18 17 11 11 13 16 16 11 9 8 5 4 8 12 7 -1 -0 3 3 7 10 8 11 19 20 15 11 10 9 7 6 5 6 9 9 7 7 6 5 6 7 9 10 10 13 15 16 19 18 15 11 7 7 5 6 9 8 9
6 6 5 4 3 6 9 6 1 1 2 3 5 7 6 4 4 4 3 2 2 4 4 3 11 19 14 13 17 15 13 13 12 15 17 15 13 12 9 6 11 12 2 -2 1 -1 -1 3 4 2 6 16 20 16 11 10 10 8 6 6 8 10 10 7 6 5 4 6 7 9 10 10 13 14 16 19 20 20 18 13 11 9 8 10 9 10
5 4 4 4 4 5 6 3 1 2 0 0 2 3 5 6 5 4 3 3 5 5 3 7 8 1 3 13 11 9 13 12 11 13 15 17 17 17 11 5 11 14 4 0 2 -3 -2 3 4 1 0 7 16 20 18 14 12 10 10 13 14 12 9 8 6 4 6 8 7 8 9 9 11 14 17 18 18 19 19 16 14 13 11 11 10 11
5 3 4 6 4 4 2 1 4 4 -1 -0 3 2 3 6 4 2 3 3 4 6 4 1 -7 -10 6 17 10 7 9 10 12 12 11 16 18 16 11 7 11 12 4 3 3 -1 0 4 4 2 -2 -1 5 13 18 17 13 12 13 15 15 11 8 6 5 4 6 7 6 6 6 6 8 11 12 14 16 16 15 15 15 13 13 12 12 12
4 5 6 5 5 6 5 5 7 5 1 4 6 4 3 4 4 1 0 -0 2 6 3 -2 -6 -5 5 13 12 10 8 9 12 9 7 13 17 16 15 14 14 8 2 6 7 1 -4 -2 3 4 1 1 1 3 11 15 13 11 11 14 15 11 9 6 5 7 7 6 6 4 4 5 6 8 10 10 10 11 12 13 14 15 14 13 14 15
4 5 5 4 5 5 4 6 7 5 6 7 4 4 4 4 4 1 -2 1 4 3 2 5 6 1 -1 5 10 10 8 9 9 7 6 10 15 18 18 20 18 5 -0 7 9 2 -4 -3 4 5 3 3 2 2 6 9 11 10 8 12 13 9 8 7 7 8 7 6 5 2 4 5 3 5 8 8 8 10 12 10 9 12 14 13 14 16
4 5 5 4 4 4 4 5 5 4 7 6 1 3 5 2 2 2 2 6 5 -0 1 8 9 5 3 5 6 8 10 7 4 5 4 4 11 17 17 21 20 7 0 4 6 5 4 1 2 3 4 6 3 1 3 6 9 8 6 8 8 7 6 5 6 6 5 6 4 2 4 4 2 3 3 4 7 8 11 13 9 7 9 13 15 16
4 4 5 5 4 4 4 3 3 2 4 4 3 4 3 -0 -0 2 4 5 4 2 3 5 5 6 7 7 6 8 9 5 2 3 1 1 7 13 15 18 17 9 5 6 5 8 10 7 5 5 5 7 4 -3 -4 5 11 10 7 7 5 5 5 4 6 9 9 9 6 4 5 3 2 3 0 1 5 3 5 12 14 10 8 8 10 13
5 4 4 4 4 5 5 4 3 1 1 3 5 4 3 3 3 4 5 3 2 4 4 5 7 6 5 7 10 10 9 7 3 1 2 2 4 9 13 14 14 12 11 12 9 8 9 6 6 6 4 6 8 2 -2 6 14 13 9 7 6 5 4 5 9 10 10 10 7 6 7 4 3 4 3 2 1 1 1 4 8 12 14 14 11 9
4 4 5 4 4 5 6 5 4 3 2 2 2 4 6 6 6 7 7 4 3 4 3 4 6 5 4 7 9 11 12 12 7 2 3 3 2 7 10 9 10 9 10 13 11 8 8 5 3 4 2 1 8 10 6 6 10 12 11 8 7 5 3 6 10 7 6 7 7 7 8 6 4 2 3 3 -0 2 4 2 1 4 10 18 19 13
4 4 5 4 3 6 6 5 4 5 4 2 5 9 9 7 7 7 5 5 6 3 2 4 5 6 9 9 7 9 12 12 9 6 5 4 4 6 8 9 8 5 5 10 11 9 9 8 7 5 -2 -1 8 11 8 5 4 9 14 14 11 6 1 4 5 4 5 5 6 9 10 9 7 3 2 2 0 1 2 2 3 3 4 9 12 16
6 5 5 3 4 6 5 4 5 5 6 7 9 8 4 3 7 6 3 5 6 3 3 6 5 4 8 6 2 6 13 12 9 7 4 4 4 5 7 11 11 6 1 4 9 9 6 8 12 9 2 6 11 6 3 2 -3 -4 2 7 10 9 6 5 3 1 3 4 3 6 10 10 9 7 5 2 0 2 3 2 3 3 4 4 2 10
7 6 6 5 5 5 4 4 5 3 5 7 5 3 7 12 11 7 4 4 4 3 5 5 4 3 7 7 2 3 10 12 10 9 6 5 6 6 6 9 13 10 1 0 7 7 1 4 14 17 12 8 7 3 1 3 5 5 4 4 7 10 13 14 8 1 2 5 4 4 9 12 10 8 8 5 3 5 5 4 3 1 2 5 3 6
8 8 8 6 6 7 6 4 2 0 0 3 3 4 8 12 10 7 7 5 3 6 6 5 5 3 3 6 5 1 3 7 8 9 10 11 11 9 6 6 12 15 5 -0 6 8 1 -1 4 14 17 9 3 3 1 4 14 15 6 2 2 3 12 20 12 4 6 8 5 3 6 11 12 10 9 7 5 7 7 5 5 3 0 1 3 4
10 8 9 10 8 6 6 4 2 1 0 0 3 4 2 2 4 7 8 6 5 7 6 6 9 7 4 7 7 2 2 5 6 5 8 13 14 12 8 5 9 16 10 0 2 8 7 -0 -4 2 12 12 9 8 6 7 9 -1 -8 0 5 3 13 22 15 6 6 7 5 5 4 6 8 8 7 6 5 6 7 6 6 5 1 -1 1 3
12 10 8 11 11 8 8 8 6 5 4 2 2 4 3 3 5 7 9 8 7 8 9 9 10 10 11 11 6 3 2 1 2 6 6 8 10 9 7 5 7 14 15 5 0 3 5 3 -1 -4 -1 6 9 8 11 12 4 -6 -1 12 11 6 10 17 14 6 4 5 7 7 4 1 1 0 0 1 2 3 5 6 6 6 4 1 -2 -1
8 12 9 7 10 9 6 5 4 5 6 4 2 3 4 3 6 10 12 8 4 7 10 11 10 11 12 11 7 5 4 1 2 7 7 5 6 4 3 6 8 11 14 12 6 4 3 1 1 -1 -4 -2 2 4 9 10 -0 -5 3 7 3 1 4 11 17 14 8 6 4 1 0 1 2 3 3 2 3 6 7 5 4 5 7 6 2 0
2 7 9 5 4 5 6 5 5 7 7 4 5 7 4 2 4 7 9 5 1 3 7 7 9 11 10 8 6 3 5 6 6 5 7 7 8 7 5 8 11 13 15 15 10 10 10 6 3 5 3 0 2 6 11 13 7 2 3 3 1 2 4 11 19 15 5 2 0 -2 1 3 4 5 5 4 3 4 4 6 10 14 15 11 6 1
5 2 6 9 7 7 11 9 4 5 7 6 8 9 6 5 4 1 2 5 3 2 7 9 9 10 8 6 6 6 9 12 9 5 8 9 9 13 14 13 14 15 16 16 12 8 10 11 9 9 9 7 7 8 9 11 9 5 3 2 1 2 7 14 18 12 3 2 2 2 2 2 0 -0 3 8 9 3 3 8 9 11 16 18 20 16
19 6 3 8 8 5 8 12 12 10 6 5 9 11 9 8 5 -0 2 10 8 3 7 11 10 10 10 9 8 7 9 12 11 8 10 12 12 15 16 14 13 14 14 16 14 7 3 6 9 9 9 8 7 6 5 4 2 -0 1 2 3 5 8 9 10 7 2 3 6 6 7 8 6 5 7 12 12 7 11 17 9 3 8 7 13 27
29 20 14 10 5 5 10 11 9 5 2 4 11 15 12 9 7 4 4 9 11 7 4 8 11 12 12 13 12 8 5 7 10 10 9 11 13 12 11 11 11 12 15 16 15 13 5 -1 -1 2 4 5 5 4 3 2 -0 -2 -2 -2 -2 -0 0 1 4 4 1 2 6 6 7 9 7 5 5 7 8 6 7 11 6 3 7 -1 -2 25
32 30 33 21 3 0 7 6 2 3 7 11 16 19 15 10 9 10 8 5 7 9 5 3 9 13 11 11 11 10 9 8 10 12 7 5 8 9 9 10 9 10 14 15 14 16 14 5 0 -2 -3 -2 -1 -1 -2 -1 -1 -2 -2 -2 -4 -5 -1 2 2 2 1 3 5 4 6 8 7 6 5 5 6 4 -0 2 4 5 14 16 7 18
35 28 36 37 21 9 7 7 11 20 17 9 12 19 19 17 14 10 11 9 4 7 10 6 5 10 10 9 7 6 8 8 9 13 11 5 7 10 5 3 5 5 8 12 14 14 14 12 9 4 1 1 1 2 2 2 2 2 1 1 -0 -1 2 2 -1 0 3 4 5 7 9 10 6 3 3 2 4 8 9 7 4 4 12 13 1 -2
43 29 26 34 35 28 25 16 5 9 16 9 9 16 16 18 20 14 12 14 6 2 7 7 5 6 7 7 8 6 6 6 3 4 9 9 10 9 3 0 4 5 6 8 12 15 16 16 13 9 7 6 4 5 6 5 5 6 5 7 11 11 11 11 10 11 11 9 10 11 10 10 8 3 1 1 1 6 12 5 -0 6 9 1 -3 1
49 34 19 24 25 18 29 35 9 -6 8 13 13 23 21 14 20 20 14 15 12 5 7 9 8 8 6 5 8 6 5 8 6 0 1 7 10 10 9 9 8 8 8 6 5 10 15 17 17 16 15 15 15 15 14 11 10 13 14 16 18 17 15 16 15 12 11 10 9 8 6 6 8 5 3 3 4 7 12 10 8 14 14 5 4 11
46 35 15 20 32 20 22 42 24 -5 6 20 18 24 23 9 10 17 13 12 13 9 10 15 14 12 9 6 6 6 3 4 6 3 -1 1 6 9 11 14 12 9 10 9 6 6 5 4 8 10 9 12 15 15 16 17 15 15 15 10 7 7 7 8 8 9 11 10 9 9 9 7 8 9 8 8 10 9 9 12 13 15 17 16 13 10
37 45 16 2 22 20 15 41 38 -1 1 25 16 6 12 11 7 8 8 14 18 10 5 10 10 8 10 8 4 6 8 5 3 4 3 -1 -0 4 6 8 10 7 5 6 7 8 5 2 3 3 -0 0 2 2 5 7 5 5 5 2 1 4 4 4 6 7 8 9 10 10 11 10 9 10 9 7 7 8 7 7 7 7 10 14 14 12
29 49 33 11 21 12 2 40 53 5 -10 18 13 -5 10 19 4 -6 -3 13 34 36 20 9 5 1 2 6 4 -0 3 8 6 1 -0 -3 -6 -6 -3 -1 1 0 -0 1 1 2 5 6 5 5 4 2 3 4 3 3 3 3 3 3 4 4 4 5 8 8 8 11 13 11 12 14 11 10 11 10 9 10 9 5 4 6 5 6 10 15
31 34 26 26 39 18 -4 32 55 11 -9 19 19 2 10 13 -1 -4 4 14 33 44 32 18 14 6 1 12 26 18 4 8 13 7 3 2 -3 -6 -5 -5 -5 -5 -4 -2 -2 -3 1 3 1 2 3 2 2 5 4 3 4 1 1 5 5 5 8 9 9 12 13 13 14 14 12 11 10 10 11 12 11 11 10 9 8 7 5 5 6 7
Height
5851 5851 5853 5855 5857 5859 5860 5862 5864 5866 5867 5868 5869 5871 5874 5875 5877 5878 5878 5878 5879 5880 5882 5883 5883 5883 5883 5883 5884 5884 5886 5887 5889 5891 5892 5894 5895 5895 5896 5896 5895 5895 5896 5896 5896 5896 5897 5899 5900 5901 5902 5903 5905 5907 5909 5910 5911 5912 5913 5914 5915 5916 5917 5918 5919 5919 5920 5921 5922 5923 5923 5924 5925 5926 5926 5927 5928 5928 5928 5929 5929 5930 5930 5930 5930 5930
5848 5850 5853 5854 5855 5856 5858 5860 5861 5863 5865 5865 5867 5869 5871 5873 5876 5877 5876 5877 5877 5878 5879 5880 5881 5882 5882 5882 5882 5882 5883 5885 5887 5889 5891 5893 5894 5895 5895 5895 5895 5895 5896 5896 5896 5896 5897 5898 5900 5901 5902 5904 5905 5907 5909 5910 5911 5912 5913 5914 5915 5916 5917 5918 5918 5919 5920 5921 5922 5922 5923 5924 5925 5926 5926 5927 5928 5928 5928 5929 5929 5930 5930 5930 5930 5930
5847 5850 5852 5852 5853 5854 5854 5856 5859 5861 5862 5863 5864 5865 5868 5872 5874 5875 5874 5876 5875 5875 5877 5878 5878 5879 5879 5879 5880 5880 5882 5883 5884 5886 5889 5891 5893 5894 5894 5894 5895 5895 5895 5896 5896 5897 5897 5898 5900 5901 5903 5904 5905 5907 5908 5909 5910 5912 5913 5914 5915 5916 5917 5917 5918 5919 5920 5921 5921 5922 5923 5924 5925 5926 5926 5927 5927 5928 5928 5929 5929 5930 5930 5930 5930 5930
5845 5848 5849 5849 5850 5851 5852 5853 5855 5857 5858 5860 5861 5862 5866 5870 5872 5872 5873 5873 5872 5872 5874 5875 5875 5876 5876 5877 5878 5879 5880 5880 5881 5882 5885 5888 5891 5893 5893 5893 5894 5894 5895 5895 5896 5897 5898 5898 5899 5901 5902 5904 5905 5906 5907 5909 5910 5912 5913 5914 5915 5916 5917 5917 5918 5919 5919 5920 5921 5922 5923 5923 5924 5925 5926 5927 5927 5928 5928 5928 5929 5930 5930 5930 5930 5930
5843 5845 5845 5846 5847 5847 5849 5850 5851 5853 5855 5858 5859 5860 5865 5869 5869 5870 5870 5870 5870 5870 5871 5872 5872 5872 5874 5876 5877 5878 5878 5879 5880 5880 5882 5885 5889 5891 5892 5892 5893 5894 5894 5895 5895 5896 5897 5898 5899 5900 5901 5903 5904 5906 5907 5909 5910 5911 5912 5913 5914 5915 5916 5917 5917 5918 5919 5920 5921 5922 5922 5923 5924 5925 5925 5926 5927 5927 5928 5928 5929 5930 5930 5930 5931 5931
5841 5842 5842 5843 5843 5845 5846 5847 5848 5850 5852 5855 5857 5860 5864 5866 5866 5867 5867 5867 5867 5867 5869 5870 5868 5869 5872 5874 5876 5877 5877 5878 5879 5879 5880 5883 5886 5889 5891 5891 5892 5893 5894 5894 5895 5895 5897 5898 5899 5900 5901 5903 5904 5906 5907 5908 5909 5910 5911 5912 5913 5914 5916 5917 5917 5918 5919 5919 5920 5921 5922 5922 5923 5924 5925 5925 5926 5926 5927 5928 5928 5929 5930 5930 5930 5931
5838 5839 5839 5840 5841 5842 5843 5845 5847 5848 5850 5852 5856 5859 5861 5861 5862 5863 5865 5864 5863 5865 5867 5866 5865 5866 5868 5870 5873 5875 5876 5877 5878 5878 5878 5880 5883 5886 5889 5890 5891 5892 5893 5894 5894 5895 5896 5896 5898 5899 5901 5903 5904 5905 5906 5907 5908 5909 5910 5912 5913 5914 5915 5916 5917 5918 5918 5919 5920 5920 5921 5921 5922 5923 5924 5924 5925 5925 5926 5927 5928 5928 5929 5930 5930 5930
5837 5836 5837 5838 5839 5840 5841 5844 5846 5846 5848 5851 5855 5856 5856 5858 5859 5860 5861 5860 5860 5862 5862 5862 5862 5862 5864 5868 5871 5873 5874 5875 5876 5877 5877 5878 5881 5884 5887 5889 5890 5891 5892 5893 5893 5894 5895 5895 5896 5898 5900 5902 5903 5904 5906 5907 5908 5909 5910 5911 5912 5913 5914 5915 5916 5917 5918 5918 5919 5919 5920 5921 5921 5922 5922 5923 5924 5925 5926 5926 5927 5927 5928 5929 5929 5930
5833 5832 5834 5835 5835 5836 5839 5843 5844 5844 5847 5850 5852 5852 5853 5855 5855 5856 5856 5856 5858 5858 5856 5859 5860 5858 5860 5866 5869 5869 5872 5874 5875 5876 5876 5877 5879 5882 5885 5888 5889 5890 5891 5892 5893 5893 5894 5895 5895 5896 5898 5900 5901 5903 5905 5907 5907 5908 5909 5910 5911 5912 5913 5914 5915 5917 5917 5917 5918 5918 5919 5920 5920 5921 5922 5922 5923 5924 5925 5925 5926 5927 5927 5928 5928 5929
5828 5829 5830 5830 5831 5833 5837 5839 5840 5842 5845 5847 5847 5847 5849 5850 5851 5852 5851 5853 5855 5851 5850 5857 5859 5855 5857 5863 5866 5866 5869 5874 5876 5876 5876 5875 5877 5879 5883 5886 5888 5889 5889 5891 5892 5893 5893 5894 5895 5895 5896 5898 5900 5901 5903 5905 5906 5907 5908 5910 5911 5912 5912 5913 5914 5915 5916 5917 5917 5918 5918 5919 5919 5920 5921 5921 5922 5923 5923 5924 5925 5926 5926 5927 5928 5928
5825 5825 5825 5827 5829 5831 5834 5835 5836 5839 5841 5841 5841 5843 5845 5845 5847 5848 5847 5850 5849 5842 5846 5855 5857 5854 5854 5858 5862 5864 5869 5874 5875 5875 5874 5873 5874 5877 5880 5884 5886 5888 5888 5889 5891 5892 5892 5893 5893 5895 5896 5897 5899 5900 5902 5903 5905 5906 5907 5909 5910 5911 5911 5912 5913 5914 5915 5916 5916 5917 5917 5918 5918 5919 5919 5920 5921 5922 5922 5923 5923 5924 5925 5926 5926 5927
5821 5821 5823 5826 5828 5829 5830 5832 5833 5836 5836 5836 5837 5840 5840 5840 5842 5842 5842 5844 5840 5838 5846 5853 5855 5853 5851 5854 5860 5864 5868 5872 5873 5874 5874 5873 5873 5875 5877 5881 5883 5886 5887 5888 5889 5890 5891 5891 5892 5894 5895 5897 5898 5899 5901 5902 5903 5905 5906 5907 5908 5909 5911 5911 5912 5913 5914 5915 5915 5916 5916 5916 5917 5918 5918 5919 5919 5920 5921 5922 5923 5923 5924 5925 5925 5925
5817 5819 5821 5823 5825 5825 5827 5829 5831 5832 5833 5833 5834 5835 5835 5835 5836 5836 5837 5837 5836 5839 5846 5851 5852 5849 5847 5852 5858 5862 5866 5869 5871 5873 5874 5873 5873 5873 5875 5878 5880 5882 5885 5887 5888 5889 5890 5891 5892 5893 5894 5895 5897 5899 5900 5901 5902 5904 5905 5906 5907 5908 5909 5910 5911 5912 5913 5913 5914 5914 5915 5915 5916 5917 5917 5917 5918 5919 5920 5921 5922 5922 5923 5924 5924 5924
5813 5816 5817 5819 5821 5823 5824 5826 5828 5830 5831 5831 5833 5832 5831 5832 5832 5831 5834 5835 5837 5841 5844 5848 5848 5842 5843 5851 5857 5861 5865 5867 5870 5872 5872 5872 5872 5873 5875 5876 5877 5879 5881 5884 5886 5887 5888 5889 5890 5892 5893 5894 5895 5897 5898 5900 5901 5902 5903 5904 5906 5907 5908 5909 5910 5911 5911 5912 5913 5913 5913 5914 5915 5915 5916 5916 5916 5917 5918 5919 5920 5921 5922 5922 5923 5923
5808 5810 5813 5817 5819 5820 5822 5825 5827 5827 5827 5829 5831 5831 5830 5831 5830 5831 5833 5834 5837 5840 5840 5842 5840 5836 5842 5850 5855 5859 5862 5864 5867 5869 5870 5872 5872 5873 5874 5874 5875 5876 5877 5879 5882 5884 5886 5887 5889 5890 5891 5892 5894 5895 5896 5898 5899 5901 5902 5903 5904 5905 5906 5907 5908 5909 5910 5910 5911 5911 5912 5912 5913 5914 5914 5915 5915 5916 5917 5917 5919 5919 5920 5921 5921 5922
5804 5807 5812 5813 5814 5816 5818 5821 5821 5821 5822 5824 5825 5825 5827 5830 5830 5830 5832 5832 5835 5837 5835 5835 5833 5835 5843 5848 5851 5856 5858 5861 5864 5866 5868 5869 5871 5873 5872 5873 5874 5875 5876 5877 5879 5881 5884 5885 5886 5888 5889 5891 5892 5893 5894 5896 5897 5899 5900 5901 5902 5903 5904 5905 5906 5907 5908 5908 5909 5909 5910 5911 5911 5912 5913 5913 5914 5914 5915 5916 5917 5918 5918 5919 5920 5920
5800 5805 5809 5807 5808 5813 5815 5816 5815 5815 5818 5818 5818 5823 5828 5829 5828 5827 5829 5831 5832 5831 5830 5832 5832 5836 5842 5844 5847 5851 5854 5858 5860 5863 5866 5867 5869 5871 5871 5872 5873 5874 5876 5877 5878 5880 5881 5883 5884 5885 5887 5888 5890 5891 5892 5894 5896 5897 5898 5899 5900 5900 5902 5903 5904 5905 5905 5906 5907 5907 5908 5909 5909 5910 5911 5911 5912 5912 5913 5914 5915 5916 5917 5918 5918 5919
5793 5799 5802 5801 5805 5810 5811 5810 5809 5810 5812 5812 5816 5824 5825 5823 5822 5822 5824 5827 5827 5824 5826 5830 5832 5834 5837 5839 5843 5847 5851 5855 5857 5860 5863 5865 5867 5869 5870 5871 5872 5873 5875 5876 5877 5878 5879 5880 5881 5882 5884 5886 5888 5889 5890 5892 5893 5894 5895 5896 5897 5898 5900 5901 5901 5902 5903 5903 5904 5905 5906 5906 5907 5908 5909 5909 5910 5910 5911 5912 5913 5915 5915 5916 5917 5917
5787 5791 5794 5796 5800 5804 5803 5802 5802 5804 5807 5810 5816 5819 5817 5815 5817 5818 5819 5822 5822 5822 5823 5827 5830 5831 5833 5836 5841 5845 5848 5852 5854 5857 5859 5862 5864 5867 5869 5870 5870 5871 5873 5874 5875 5876 5877 5878 5878 5880 5881 5883 5885 5887 5888 5889 5890 5891 5892 5893 5895 5896 5897 5898 5898 5900 5900 5901 5902 5902 5903 5904 5904 5905 5906 5907 5907 5908 5910 5911 5911 5913 5913 5913 5914 5915
5781 5784 5789 5793 5795 5796 5794 5793 5795 5800 5805 5808 5811 5811 5810 5812 5814 5815 5815 5818 5821 5822 5823 5825 5827 5828 5831 5836 5839 5842 5845 5849 5851 5853 5856 5859 5861 5864 5867 5869 5869 5869 5871 5872 5873 5874 5875 5876 5877 5878 5879 5880 5882 5884 5885 5886 5887 5888 5890 5891 5892 5893 5894 5895 5896 5898 5898 5899 5899 5900 5900 5901 5902 5902 5903 5904 5905 5906 5908 5908 5909 5910 5911 5911 5912 5913
5778 5780 5784 5788 5789 5788 5786 5786 5793 5800 5803 5804 5805 5806 5808 5809 5810 5810 5811 5814 5818 5820 5821 5823 5823 5825 5830 5834 5836 5839 5842 5844 5847 5850 5852 5855 5858 5860 5863 5865 5867 5867 5869 5870 5871 5872 5874 5875 5875 5876 5877 5877 5879 5880 5881 5882 5884 5886 5887 5888 5889 5890 5892 5893 5895 5895 5896 5896 5897 5897 5898 5898 5899 5899 5900 5901 5902 5904 5905 5905 5906 5907 5908 5908 5909 5910
5772 5773 5777 5783 5782 5781 5782 5786 5793 5798 5800 5801 5802 5804 5807 5808 5807 5807 5808 5812 5816 5817 5819 5820 5820 5824 5830 5832 5834 5836 5838 5840 5843 5845 5848 5851 5854 5857 5859 5862 5863 5864 5866 5867 5868 5870 5871 5872 5873 5873 5874 5874 5875 5876 5878 5879 5881 5883 5884 5886 5887 5888 5889 5891 5892 5893 5893 5894 5894 5895 5895 5895 5896 5896 5897 5898 5900 5901 5902 5902 5903 5903 5904 5906 5907 5907
5764 5765 5771 5778 5777 5777 5781 5786 5789 5793 5795 5795 5795 5799 5802 5802 5802 5802 5807 5813 5815 5814 5817 5818 5818 5822 5828 5829 5831 5833 5834 5836 5839 5841 5844 5847 5849 5852 5855 5858 5860 5861 5862 5864 5865 5867 5868 5869 5870 5870 5870 5871 5872 5874 5875 5877 5879 5880 5882 5883 5884 5885 5887 5889 5890 5890 5891 5891 5892 5892 5893 5893 5894 5894 5895 5896 5897 5898 5899 5899 5899 5899 5901 5902 5903 5904
5757 5759 5765 5771 5774 5775 5778 5781 5782 5785 5787 5786 5787 5792 5795 5796 5799 5802 5807 5811 5810 5809 5813 5815 5815 5820 5826 5828 5829 5830 5831 5833 5835 5837 5840 5842 5845 5848 5851 5854 5857 5859 5860 5861 5862 5863 5864 5865 5866 5866 5867 5868 5869 5871 5873 5874 5876 5878 5879 5880 5881 5883 5885 5886 5887 5888 5889 5889 5890 5890 5890 5891 5892 5892 5892 5893 5894 5895 5895 5896 5896 5896 5898 5899 5900 5901
5749 5752 5756 5762 5767 5769 5771 5773 5774 5776 5778 5778 5781 5787 5790 5794 5798 5799 5803 5804 5801 5804 5809 5811 5811 5817 5824 5826 5827 5829 5830 5831 5833 5835 5837 5839 5841 5844 5846 5849 5853 5855 5857 5858 5859 5860 5861 5862 5862 5862 5864 5865 5867 5868 5870 5872 5874 5875 5877 5878 5879 5881 5882 5883 5884 5885 5887 5887 5888 5888 5889 5889 5889 5890 5890 5891 5891 5892 5892 5893 5893 5894 5894 5895 5896 5897
5742 5745 5748 5753 5759 5762 5763 5765 5767 5770 5773 5775 5778 5783 5786 5791 5793 5795 5798 5796 5795 5800 5805 5806 5808 5815 5822 5824 5825 5826 5827 5828 5830 5832 5833 5836 5838 5840 5842 5844 5848 5851 5853 5854 5856 5857 5859 5860 5860 5860 5861 5862 5864 5866 5868 5870 5871 5873 5874 5876 5877 5879 5879 5881 5882 5883 5884 5885 5886 5886 5887 5887 5888 5888 5888 5889 5889 5889 5890 5890 5891 5891 5892 5892 5893 5894
5734 5738 5741 5745 5751 5755 5757 5760 5762 5766 5769 5770 5773 5777 5781 5785 5789 5792 5792 5788 5792 5799 5800 5803 5808 5812 5818 5822 5823 5824 5825 5826 5828 5829 5831 5833 5835 5836 5838 5840 5843 5846 5849 5851 5853 5855 5856 5858 5858 5858 5859 5860 5862 5863 5865 5867 5869 5870 5871 5873 5875 5876 5877 5878 5879 5881 5882 5883 5884 5884 5885 5885 5886 5886 5886 5887 5887 5887 5888 5888 5889 5889 5890 5890 5890 5892
5727 5730 5732 5737 5743 5748 5752 5755 5756 5760 5763 5765 5767 5772 5777 5781 5785 5786 5784 5785 5792 5794 5794 5802 5808 5807 5813 5820 5821 5821 5823 5824 5826 5827 5828 5830 5832 5834 5835 5837 5839 5843 5845 5848 5850 5852 5854 5855 5856 5857 5857 5858 5859 5861 5862 5864 5865 5867 5868 5870 5872 5873 5875 5876 5877 5878 5879 5880 5881 5882 5883 5884 5884 5884 5885 5885 5885 5885 5886 5886 5887 5887 5887 5888 5889 5889
5719 5722 5725 5729 5734 5740 5746 5749 5751 5754 5757 5760 5763 5768 5772 5776 5779 5780 5780 5784 5789 5788 5792 5804 5806 5802 5808 5817 5819 5820 5822 5822 5823 5824 5824 5827 5829 5831 5833 5834 5836 5839 5842 5844 5846 5848 5851 5852 5854 5855 5855 5856 5857 5858 5860 5861 5862 5864 5866 5868 5869 5871 5873 5874 5875 5876 5877 5878 5879 5881 5881 5881 5881 5882 5883 5883 5883 5884 5884 5884 5885 5885 5885 5886 5887 5887
5711 5714 5717 5721 5727 5733 5737 5741 5745 5749 5751 5755 5760 5764 5767 5771 5775 5777 5778 5781 5783 5784 5791 5800 5799 5798 5805 5812 5816 5819 5819 5819 5820 5820 5821 5824 5826 5828 5830 5831 5833 5835 5837 5840 5843 5845 5847 5849 5851 5852 5853 5854 5855 5856 5857 5859 5860 5862 5864 5866 5867 5869 5871 5872 5873 5874 5875 5876 5878 5878 5878 5879 5879 5880 5880 5881 5882 5882 5882 5882 5883 5883 5883 5884 5885 5885
5702 5706 5710 5714 5719 5725 5729 5733 5738 5742 5746 5750 5755 5759 5763 5767 5771 5772 5773 5776 5777 5779 5787 5792 5791 5794 5802 5807 5812 5815 5815 5816 5817 5817 5819 5820 5822 5824 5826 5828 5830 5832 5834 5837 5840 5842 5844 5846 5848 5850 5851 5852 5853 5855 5856 5857 5858 5860 5862 5863 5865 5867 5868 5869 5870 5871 5873 5874 5875 5875 5876 5876 5877 5878 5878 5879 5880 5880 5880 5880 5881 5881 5882 5882 5882 5883
5694 5698 5703 5706 5709 5716 5722 5724 5729 5737 5741 5744 5750 5757 5759 5761 5765 5767 5768 5770 5772 5775 5782 5785 5784 5791 5801 5806 5808 5811 5812 5812 5814 5815 5816 5816 5818 5819 5822 5825 5827 5829 5831 5834 5836 5839 5841 5843 5845 5847 5848 5850 5851 5853 5854 5855 5856 5857 5859 5861 5863 5864 5865 5866 5867 5868 5870 5872 5872 5872 5873 5874 5875 5875 5876 5877 5877 5878 5878 5878 5879 5879 5879 5880 5880 5880
5684 5689 5695 5697 5701 5708 5714 5716 5722 5729 5734 5739 5747 5752 5753 5755 5758 5761 5763 5766 5769 5773 5776 5778 5782 5792 5801 5802 5802 5804 5807 5808 5810 5811 5812 5812 5814 5815 5817 5821 5824 5826 5828 5830 5832 5835 5837 5839 5842 5844 5846 5848 5849 5850 5851 5853 5853 5855 5857 5858 5860 5861 5861 5862 5864 5865 5867 5869 5869 5869 5870 5871 5872 5873 5874 5875 5875 5875 5875 5876 5876 5877 5877 5877 5878 5878
5676 5681 5686 5689 5693 5699 5706 5711 5715 5719 5726 5735 5741 5743 5747 5750 5752 5755 5759 5763 5765 5769 5772 5776 5782 5790 5795 5795 5795 5798 5802 5804 5806 5807 5807 5808 5810 5812 5814 5817 5819 5822 5824 5826 5829 5831 5833 5836 5838 5841 5843 5845 5846 5847 5848 5850 5851 5852 5854 5855 5855 5856 5857 5859 5861 5862 5864 5865 5866 5866 5867 5868 5869 5870 5871 5872 5872 5872 5872 5873 5874 5874 5875 5875 5875 5875
5668 5672 5677 5681 5685 5690 5698 5705 5706 5709 5722 5732 5732 5736 5742 5744 5746 5749 5754 5759 5762 5765 5769 5772 5777 5783 5788 5790 5792 5793 5795 5798 5800 5802 5803 5805 5807 5809 5811 5812 5815 5817 5820 5822 5825 5828 5830 5832 5834 5837 5840 5842 5843 5843 5844 5846 5848 5849 5850 5851 5852 5853 5854 5855 5857 5858 5860 5861 5862 5863 5864 5864 5866 5867 5868 5868 5868 5869 5870 5870 5871 5871 5871 5872 5872 5872
5661 5665 5669 5673 5677 5681 5690 5696 5697 5705 5719 5723 5722 5729 5735 5738 5741 5745 5748 5753 5758 5760 5763 5767 5772 5778 5783 5786 5788 5789 5790 5792 5795 5797 5799 5801 5803 5805 5807 5809 5811 5813 5816 5818 5821 5824 5826 5828 5830 5833 5836 5838 5839 5839 5841 5842 5844 5845 5846 5847 5848 5849 5850 5852 5853 5855 5856 5857 5859 5860 5860 5861 5862 5863 5864 5865 5865 5865 5866 5867 5867 5868 5868 5868 5869 5869
5654 5657 5661 5665 5670 5674 5681 5687 5692 5700 5710 5713 5715 5722 5728 5733 5738 5739 5742 5749 5755 5756 5759 5763 5768 5773 5778 5781 5783 5784 5785 5787 5790 5792 5795 5797 5800 5802 5804 5805 5807 5809 5811 5814 5817 5820 5822 5824 5827 5829 5831 5833 5835 5836 5837 5838 5839 5841 5842 5843 5844 5845 5846 5847 5849 5851 5852 5854 5855 5856 5857 5858 5858 5859 5860 5860 5861 5861 5862 5863 5863 5864 5863 5864 5865 5865
5646 5650 5654 5658 5663 5668 5673 5679 5685 5691 5699 5706 5711 5715 5722 5729 5733 5733 5737 5745 5752 5754 5756 5759 5763 5768 5772 5775 5777 5779 5780 5782 5784 5787 5791 5794 5796 5799 5801 5802 5804 5805 5807 5809 5812 5815 5818 5820 5823 5825 5826 5829 5831 5833 5834 5835 5836 5837 5838 5839 5840 5841 5842 5844 5845 5847 5848 5849 5850 5852 5852 5853 5853 5854 5855 5855 5856 5856 5857 5857 5858 5858 5859 5859 5860 5861
5638 5643 5647 5651 5656 5661 5666 5671 5677 5682 5691 5700 5704 5707 5714 5722 5728 5730 5732 5738 5747 5750 5750 5753 5758 5762 5766 5769 5771 5774 5776 5778 5780 5783 5787 5790 5793 5796 5798 5799 5801 5802 5803 5805 5807 5810 5813 5816 5818 5820 5822 5824 5826 5828 5830 5831 5832 5833 5834 5835 5837 5837 5838 5840 5842 5843 5844 5845 5846 5847 5848 5848 5848 5849 5850 5850 5850 5851 5850 5851 5851 5851 5852 5853 5854 5856
5630 5634 5638 5642 5648 5655 5660 5664 5670 5675 5684 5692 5697 5702 5708 5714 5722 5725 5724 5730 5742 5744 5744 5749 5753 5756 5761 5764 5766 5769 5772 5775 5778 5781 5783 5786 5788 5791 5793 5796 5797 5798 5799 5801 5803 5805 5808 5811 5813 5815 5817 5819 5821 5823 5825 5826 5828 5829 5830 5831 5832 5833 5835 5837 5838 5839 5839 5840 5840 5841 5843 5843 5844 5844 5844 5844 5844 5844 5844 5845 5845 5845 5844 5845 5847 5849
5621 5626 5630 5636 5644 5650 5653 5658 5664 5669 5677 5685 5691 5697 5703 5708 5715 5717 5719 5727 5737 5739 5741 5745 5748 5751 5756 5759 5761 5765 5768 5772 5775 5776 5778 5781 5783 5785 5788 5790 5792 5794 5796 5797 5799 5801 5804 5806 5809 5811 5812 5814 5816 5817 5819 5821 5823 5824 5825 5826 5827 5830 5832 5833 5834 5834 5833 5834 5835 5837 5837 5838 5839 5840 5840 5840 5839 5839 5839 5840 5840 5838 5838 5839 5841 5842
5613 5619 5623 5629 5638 5644 5648 5654 5658 5662 5670 5678 5685 5692 5697 5701 5706 5712 5718 5725 5730 5734 5737 5740 5744 5747 5750 5753 5757 5760 5764 5768 5770 5771 5774 5777 5779 5781 5783 5785 5787 5789 5791 5793 5795 5797 5799 5802 5804 5806 5808 5810 5812 5813 5815 5816 5818 5819 5820 5821 5823 5825 5827 5827 5828 5828 5828 5829 5830 5831 5832 5833 5834 5835 5835 5835 5834 5833 5835 5836 5835 5834 5834 5835 5836 5837
5606 5611 5615 5623 5632 5638 5642 5646 5649 5654 5665 5675 5679 5685 5691 5695 5701 5710 5717 5720 5724 5729 5733 5736 5739 5743 5745 5749 5753 5755 5759 5763 5765 5767 5770 5772 5774 5777 5778 5780 5783 5784 5786 5788 5790 5792 5794 5797 5799 5801 5803 5805 5807 5809 5810 5812 5813 5815 5816 5817 5818 5819 5819 5820 5822 5823 5823 5824 5825 5826 5827 5828 5828 5829 5829 5829 5828 5828 5829 5829 5829 5829 5829 5830 5830 5831
5599 5605 5611 5620 5627 5631 5633 5637 5643 5652 5664 5670 5673 5678 5685 5690 5698 5706 5712 5715 5720 5725 5729 5732 5735 5738 5741 5744 5747 5750 5754 5757 5760 5763 5765 5767 5770 5772 5774 5776 5778 5779 5782 5784 5786 5788 5790 5792 5794 5796 5798 5800 5802 5803 5805 5806 5808 5809 5811 5812 5813 5813 5814 5815 5816 5817 5818 5819 5820 5821 5821 5822 5822 5822 5822 5823 5822 5823 5823 5823 5822 5822 5823 5824 5824 5825
5594 5601 5608 5615 5620 5624 5629 5636 5644 5654 5661 5665 5669 5675 5681 5686 5693 5701 5707 5712 5716 5720 5724 5728 5731 5734 5737 5739 5742 5746 5749 5751 5754 5758 5760 5762 5765 5767 5769 5771 5773 5775 5777 5779 5781 5783 5785 5787 5790 5792 5793 5795 5796 5798 5800 5801 5802 5803 5805 5806 5807 5808 5809 5810 5811 5811 5812 5813 5814 5815 5815 5816 5815 5815 5816 5816 5816 5816 5817 5818 5817 5816 5816 5816 5817 5817
5589 5598 5603 5608 5614 5619 5624 5632 5642 5650 5657 5663 5668 5674 5679 5683 5690 5697 5704 5708 5712 5716 5720 5724 5727 5730 5732 5735 5737 5741 5744 5747 5750 5752 5754 5757 5760 5762 5764 5766 5768 5771 5773 5774 5776 5779 5780 5783 5785 5787 5788 5790 5791 5793 5794 5795 5796 5798 5799 5800 5801 5802 5803 5804 5805 5806 5806 5807 5807 5808 5808 5808 5808 5809 5809 5809 5809 5809 5810 5810 5810 5809 5808 5807 5807 5809
5584 5591 5596 5600 5607 5613 5617 5626 5638 5647 5653 5660 5666 5671 5677 5682 5687 5693 5699 5703 5707 5711 5714 5718 5722 5725 5727 5729 5732 5735 5738 5742 5744 5746 5748 5751 5753 5756 5759 5761 5763 5766 5768 5770 5772 5774 5776 5778 5780 5781 5784 5785 5786 5788 5789 5790 5791 5792 5793 5794 5795 5796 5797 5798 5799 5799 5800 5800 5801 5801 5801 5801 5801 5802 5801 5801 5801 5801 5802 5802 5802 5801 5800 5798 5799 5801
5576 5581 5587 5594 5602 5607 5613 5622 5634 5643 5650 5657 5664 5669 5674 5680 5684 5689 5693 5697 5702 5706 5709 5712 5716 5719 5721 5724 5727 5730 5732 5735 5737 5740 5743 5745 5748 5750 5752 5755 5758 5760 5763 5765 5767 5769 5771 5773 5775 5776 5778 5780 5781 5782 5783 5784 5785 5786 5787 5789 5790 5791 5791 5792 5793 5793 5794 5794 5794 5794 5794 5794 5794 5794 5794 5793 5793 5793 5793 5794 5793 5793 5792 5792 5793 5794
5567 5571 5581 5590 5596 5601 5608 5618 5629 5639 5647 5653 5660 5666 5670 5676 5680 5684 5687 5691 5696 5700 5702 5705 5708 5711 5715 5718 5720 5724 5727 5728 5731 5734 5737 5739 5742 5745 5747 5750 5753 5755 5758 5761 5763 5765 5767 5768 5770 5771 5773 5774 5775 5776 5777 5778 5779 5780 5781 5783 5784 5785 5785 5786 5786 5787 5787 5787 5787 5787 5787 5787 5787 5786 5786 5786 5785 5784 5784 5785 5784 5784 5785 5785 5785 5785
5562 5570 5580 5587 5591 5598 5609 5619 5628 5637 5644 5650 5657 5663 5667 5671 5675 5679 5683 5688 5691 5692 5693 5696 5700 5704 5708 5712 5715 5718 5721 5723 5725 5728 5731 5734 5738 5741 5743 5746 5748 5750 5753 5755 5757 5760 5762 5763 5764 5766 5767 5768 5769 5770 5771 5772 5772 5773 5775 5775 5776 5778 5778 5779 5779 5780 5779 5780 5779 5779 5778 5778 5778 5778 5777 5777 5776 5776 5775 5774 5774 5774 5775 5776 5777 5777
5562 5570 5576 5582 5589 5599 5610 5619 5626 5634 5641 5647 5654 5659 5664 5667 5671 5675 5681 5686 5689 5689 5687 5688 5692 5697 5702 5707 5709 5710 5712 5716 5719 5722 5726 5730 5733 5737 5739 5742 5744 5746 5748 5749 5751 5753 5755 5756 5758 5760 5761 5762 5763 5763 5764 5765 5765 5766 5767 5768 5769 5770 5771 5772 5772 5772 5772 5772 5772 5771 5771 5770 5769 5769 5768 5767 5767 5765 5764 5763 5764 5764 5764 5765 5766 5767